Location: Newark
(42.7133°N, 87.7910°W)
Time: 16:35:22
(UTC+00:00)

Vanguard 1 - Pass Details

Date: 25 September 2019
Orbit: 653 x 3830 km, 34.3° (Epoch: 14 October)

Event Time Altitude Azimuth Distance (km) Brightness Sun altitude
Rises 03:39:14 0° 189° (S) 6,603 - -39.7°
Reaches altitude 10° 03:44:44 10° 176° (S) 6,039 - -40.3°
Maximum altitude 03:58:55 24° 131° (SE) 5,654 - -42.0°
Exits shadow 04:13:32 12° 91° (E) 6,739 14.0 -43.5°
Drops below altitude 10° 04:14:44 10° 89° (E) 6,872 14.1 -43.6°
Sets 04:21:28 0° 78° (ENE) 7,696 14.5 -44.2°
